Location: Bettgenhausen
(50.6463°N, 7.5681°E)
Time: 18:02:04
(UTC+00:00)

STARLINK-25 - Pass Details

Date: 27 February 2020
Orbit: 528 x 531 km, 53.0° (Epoch: 28 March)

Event Time Altitude Azimuth Distance (km) Brightness Sun altitude
Rises 18:54:12 0° 280° (W) 2,667 8.9 -17.8°
Reaches altitude 10° 18:56:26 10° 284° (WNW) 1,777 7.5 -18.1°
Maximum altitude 19:00:26 62° 6° (N) 598 3.7 -18.7°
Enters shadow 19:01:27 45° 64° (ENE) 735 3.8 -18.9°
